Millington, TN

11:04 PM CST on February 11, 2016 (GMT -0600)
Millington Municipal

Weather History for KNQA - February, 2014

Change the Weather History Date:

Monday, February 3, 2014

  Actual Average Record
Temperature  
Mean Temperature 26 °F -  
Max Temperature 28 °F 49 °F 64 °F (2003)
Min Temperature 24 °F 33 °F 14 °F (2007)
Degree Days  
Heating Degree Days 39    
Moisture  
Dew Point 26 °F    
Average Humidity 95    
Maximum Humidity 100    
Minimum Humidity 93    
Precipitation  
Precipitation 0.00 in - - ()
Sea Level Pressure  
Sea Level Pressure 30.26 in    
Wind  
Wind Speed 5 mph (North)    
Max Wind Speed 8 mph    
Max Gust Speed -    
Visibility 6 miles    
Events      
Averages and records for this station are not official NWS values.
T = Trace of Precipitation, MM = Missing Value Source: NWS Daily Summary

Daily Weather History Graph

Daily Weather History Graph

Search for Another Location

Airport or City:

Trip Planner

Search our weather history database for the weather conditions in past years. The results will help you decide how hot, cold, wet, or windy it might be!

Date:

Astronomy

Feb. 03, 2014 Rise Set
Actual Time 6:57 AM CST 5:29 PM CST
Civil Twilight 6:30 AM CST 5:56 PM CST
Nautical Twilight 6:00 AM CST 6:26 PM CST
Astronomical Twilight 5:30 AM CST 6:56 PM CST
Moon 9:10 AM CST (2/3) 10:07 PM CST (2/3)
Length of Visible Light 11h 25m
Length of Day
10h 32m
Waxing Crescent, 20% of the Moon is Illuminated
Feb 3
Waxing Crescent
Feb 6
First Quarter
Feb 14
Full
Feb 22
Last Quarter
Mar 1
New

Hourly Weather History & Observations

Time (CST) Temp. Windchill Dew Point Humidity Pressure Visibility Wind Dir Wind Speed Gust Speed Precip Events Conditions
2:15 AM 26.6 °F 19.1 °F 24.8 °F 93% 30.19 in 9.0 mi North 6.9 mph - N/A   Overcast
2:35 AM 26.6 °F 21.2 °F 26.6 °F 100% 30.20 in 7.0 mi North 4.6 mph - N/A   Mostly Cloudy
2:55 AM 26.6 °F 20.0 °F 26.6 °F 100% 30.21 in 9.0 mi NNW 5.8 mph - N/A   Overcast
3:15 AM 26.6 °F 18.2 °F 24.8 °F 93% 30.21 in 9.0 mi North 8.1 mph - N/A   Overcast
3:35 AM 26.6 °F 20.0 °F 24.8 °F 93% 30.23 in 10.0 mi NNW 5.8 mph - N/A   Overcast
3:55 AM 26.6 °F 19.1 °F 24.8 °F 93% 30.23 in 8.0 mi North 6.9 mph - N/A   Overcast
4:15 AM 26.6 °F 18.2 °F 24.8 °F 93% 30.23 in 9.0 mi North 8.1 mph - N/A   Overcast
4:35 AM 26.6 °F 18.2 °F 24.8 °F 93% 30.25 in 9.0 mi North 8.1 mph - N/A   Overcast
4:55 AM 26.6 °F 19.1 °F 24.8 °F 93% 30.25 in 10.0 mi North 6.9 mph - N/A   Overcast
8:55 AM 24.8 °F 19.1 °F 23.0 °F 93% 30.33 in 6.0 mi North 4.6 mph - N/A   Overcast
9:55 AM 24.8 °F 17.9 °F 23.0 °F 93% 30.35 in 6.0 mi North 5.8 mph - N/A   Overcast
10:52 AM 24.8 °F 17.9 °F 24.8 °F 100% 30.34 in 3.0 mi North 5.8 mph - N/A   Overcast
11:50 AM 24.8 °F - 24.8 °F 100% 30.30 in 3.0 mi Calm Calm - N/A   Overcast
1:50 PM 28.4 °F - 26.6 °F 93% 30.28 in 3.0 mi Calm Calm - N/A   Overcast
2:50 PM 28.4 °F - 26.6 °F 93% 30.28 in 4.0 mi Calm Calm - N/A   Overcast
3:50 PM 28.4 °F 24.6 °F 26.6 °F 93% 30.28 in 4.0 mi NE 3.5 mph - N/A   Overcast
4:50 PM 28.4 °F - 26.6 °F 93% 30.29 in 5.0 mi Calm Calm - N/A   Overcast
5:50 PM 26.6 °F - 26.6 °F 100% 30.28 in 5.0 mi Calm Calm - N/A   Overcast
6:55 PM 26.6 °F - 26.6 °F 100% 30.28 in 7.0 mi Calm Calm - N/A   Overcast
8:53 PM 28.4 °F - 26.6 °F 93% 30.29 in 5.0 mi Calm Calm - N/A   Overcast
9:55 PM 28.4 °F - 26.6 °F 93% 30.27 in 5.0 mi Calm Calm - N/A   Overcast
10:50 PM 28.4 °F 23.3 °F 28.4 °F 100% 30.24 in 3.0 mi ENE 4.6 mph - N/A   Overcast
11:50 PM 28.4 °F - 28.4 °F 100% 30.23 in 3.0 mi Calm Calm - N/A   Overcast